Tracking 19219 objects as of 19-Jul-2018
HD Live streaming from Space Station
objects crossing your sky now

FENGYUN 1C DEB

Track FENGYUN 1C DEB now!
10-day predictions


NORAD ID: 31476
Int'l Code: 1999-025BVQ
Perigee: 823.1 km
Apogee: 908.1 km
Inclination: 99.1 °
Period: 102.1 minutes
Semi major axis: 7236 km
RCS: 0.0144 m2 (small)
Launch date: May 10, 1999
Source: People's Republic of China (PRC)
Launch site: Taiyaun Space Center, China (TSC)

Note: This is SATELLITE DEBRIS
aabbcc
Your satellite tracking list
Your tracking list is empty




NASA's NSSDC Master Catalog

Two Line Element Set (TLE):
1 31476U 99025BVQ 18199.72600767 +.00000449 +00000-0 +27523-3 0  9998
2 31476 099.0988 220.6187 0058764 252.0947 172.2830 14.10265692574972
Source of the keplerian elements: AFSPC